星链-3887 (STARLINK-3887 )

导读

STARLINK-3887是美国SpaceX公司星链星座的成员,于2022年5月6日发射。星链是低轨宽带通信星座,旨在为全球提供高速互联网接入。该卫星采用平板设计,搭载Ku/Ka波段通信载荷,配备氪工质霍尔推进器,具备自主避撞能力,运行在约550公里低轨,设计寿命5-7年,退役后会主动离轨再入大气层烧毁。

Basic Information
目录编号:
52484
目录名称:
STARLINK-3887
国际标识:
2022-049AK
轨道中心:
EARTH
卫星名称:
星链-3887
卫星全名:
星链-3887 (STARLINK-3887 )
卫星状态:
在轨 (已飞行1582 天)
发射日期:
2022-05-06 UTC
国别 :
美国 (US)
星等 :
--
Orbit Information
数据来源 国际轨道数据
星历时间: 2026-09-04T01:17:55+0800
12小时前
查看轨道信息
半长轴: 6837.851km
偏心率: 0.0001421
轨道倾角: 53.161°
近地点辐角 62.454°
升交点赤经 332.093°
平近点角 297.661°
近地点: 458.742km
远地点: 460.686km
周期: 93.786分钟
每日圈数: 15.354065
Detailed Information
固有亮度:
5
最大亮度:
2.5
卫星平台:
Starlink v1.5
覆盖范围:
全球
运营商:
太空探索技术公司
运营商所在国:
美国
制造商(研发单位):
太空探索技术公司
制造商所在国:
美国
使用方式:
暂无
Satellite Introduction
星链(Starlink)计划是由太空探索技术公司(SpaceX)提出的一个巨型低轨卫星互联网星座项目,计划在2019年至2024年间在太空搭建由约1.2万颗卫星组成的“星链”网络,其中1584颗将部署在地球上空550千米处的近地轨道,并从2020年开始工作。该卫星仍在工作。
2D Orbit Map
3D Orbit Map
Orbit Altitude Analysis Chart
Orbit Inclination Analysis Chart
Orbit Comprehensive Analysis Chart
View Comprehensive Chart
Conjunction Data List
Event ID Objects TCA Miss Dist (km) Collision Risk Probability Collision Risk Index (CRI) Action
CDM_260903-235105-248405-276323
2026-09-03T
23:51:16+0000
1.059 km
极远距离
1.64468E-5 中风险 0.59
CDM_260904-081405-248406-585721
2026-09-04T
08:14:59+0000
2.719 km
极远距离
1.336866E-6 低风险 0.38
CDM_260904-213305-248406-564121
2026-09-04T
21:33:57+0000
2.686 km
极远距离
1.333597E-6 低风险 0.38
CDM_260904-114905-248406-627221
2026-09-04T
11:49:35+0000
2.785 km
极远距离
1.169891E-6 低风险 0.36
CDM_260903-045202-597905-248425
2026-09-03T
04:52:31+0000
2.478 km
极远距离
1.055647E-6 低风险 0.35
CDM_260903-043105-248405-922222
2026-09-03T
04:31:07+0000
2.872 km
极远距离
9.622112E-7 极低风险 0.35
CDM_260904-205805-248406-804921
2026-09-04T
20:58:57+0000
2.887 km
极远距离
6.419264E-7 极低风险 0.31
CDM_260904-082905-248406-805121
2026-09-04T
08:29:15+0000
2.962 km
极远距离
6.047173E-7 极低风险 0.31